This demonstration page uses our WeatherBlox Daily Observations layout. Learn more.

Left ArrowRight Arrow

41.12389, -100.76542

Hourly Observations for January 3, 2019

Temp ( °F °C ) Dew Point ( °F °C ) Humidity (%) Winds ( mph kmh ) Pressure ( in mb ) Visibility ( mi km ) Precip ( " mm )
12:53 am 00:53 Clear 17 -8.3 14 -10 88 88 Calm 30.10 1019 10 16 0.00 0.00
1:53 am 01:53 Clear 18 -7.8 13 -10.6 81 81 NW 6 9 30.09 1019 10 16 0.00 0.00
2:53 am 02:53 Clear 18 -7.8 13 -10.6 81 81 NNW 8 13 30.09 1019 10 16 0.00 0.00
3:53 am 03:53 Clear 17 -8.3 13 -10.6 84 84 NW 6 9 30.08 1019 10 16 0.00 0.00
4:53 am 04:53 Clear 16 -8.9 12 -11.1 84 84 NW 8 13 30.07 1018 10 16 0.00 0.00
5:53 am 05:53 Clear 16 -8.9 12 -11.1 84 84 NW 6 9 30.05 1018 10 16 0.00 0.00
6:53 am 06:53 Clear 16 -8.9 12 -11.1 84 84 NNW 8 13 30.09 1019 10 16 0.00 0.00
8:53 am 08:53 Sunny 22 -5.6 16 -8.9 78 78 W 5 7 30.09 1019 10 16 0.00 0.00
9:53 am 09:53 Sunny 26 -3.3 18 -7.8 71 71 WNW 10 17 30.10 1019 10 16 0.00 0.00
10:53 am 10:53 Sunny 34 1.1 19 -7.2 54 54 WNW 12 19 30.07 1018 10 16 0.00 0.00
11:53 am 11:53 Sunny 37 2.8 20 -6.7 50 50 WNW 10 17 30.03 1017 10 16 0.00 0.00
12:53 pm 12:53 Sunny 42 5.6 22 -5.6 45 45 W 14 22 29.99 1016 10 16 0.00 0.00
1:53 pm 13:53 Sunny 44 6.7 24 -4.4 45 45 W 10 17 29.96 1015 10 16 0.00 0.00
2:53 pm 14:53 Sunny 47 8.3 26 -3.3 44 44 W 10 17 29.94 1014 10 16 0.00 0.00
3:53 pm 15:53 Sunny 48 8.9 27 -2.8 44 44 W 8 13 29.93 1014 10 16 0.00 0.00
4:53 pm 16:53 Sunny 46 7.8 27 -2.8 47 47 W 6 9 29.94 1014 10 16 0.00 0.00
5:53 pm 17:53 Clear 36 2.2 26 -3.3 67 67 Calm 29.96 1014 10 16 0.00 0.00
6:53 pm 18:53 Clear 32 0 25 -3.9 75 75 Calm 29.98 1015 10 16 0.00 0.00
7:53 pm 19:53 Clear 31 -0.6 24 -4.4 76 76 Calm 29.99 1016 10 16 0.00 0.00
8:53 pm 20:53 Clear 26 -3.3 22 -5.6 84 84 NNW 3 6 30.00 1016 10 16 0.00 0.00
9:53 pm 21:53 Clear 25 -3.9 22 -5.6 88 88 NNW 6 9 30.00 1016 10 16 0.00 0.00
10:53 pm 22:53 Clear 25 -3.9 21 -6.1 85 85 NNW 7 11 29.99 1016 10 16 0.00 0.00
11:53 pm 23:53 Clear 25 -3.9 21 -6.1 85 85 NNW 6 9 29.98 1015 10 16 0.00 0.00

Powered by AerisWeather